Location: Buena Vista
(37.7110°N, 119.7938°W)
Time: 00:46:49
(UTC+00:00)

Envisat - Pass Details

Date: 23 August 2024
Orbit: 762 x 764 km, 98.3° (Epoch: 08 September)

Event Time Altitude Azimuth Distance (km) Brightness Sun altitude
Rises 11:59:30 0° 1° (N) 3,232 6.7 -16.0°
Reaches altitude 10° 12:02:03 10° 350° (N) 2,302 5.7 -15.6°
Maximum altitude 12:06:23 30° 291° (WNW) 1,356 3.9 -14.8°
Enters shadow 12:08:32 22° 252° (WSW) 1,637 4.1 -14.4°
